This is the latest recevied weather packets stored in our database for station/object WA7CUG. If no packets are shown the sender has not sent any weather packets the latest 10 day(s).
| Time | Temp. | Humidity | Pressure | Rain* | Wind** | Luminosity | Snow |
|---|---|---|---|---|---|---|---|
| 1777452723 | 10.56° C | 69% | 1021.9 hPa | 0 mm | - | 0 W/m² | - |
| 1777452419 | 10.56° C | 68% | 1021.9 hPa | 0 mm | - | 0 W/m² | - |
| 1777452115 | 10° C | 69% | 1021.5 hPa | 0 mm | - | 0 W/m² | - |
| 1777451810 | 10° C | 69% | 1021.7 hPa | 0 mm | - | 0 W/m² | - |
| 1777451507 | 10° C | 70% | 1021.8 hPa | 0 mm | - | 0 W/m² | - |
| 1777451202 | 10° C | 72% | 1021.7 hPa | 0 mm | - | 0 W/m² | - |
| 1777450899 | 9.44° C | 73% | 1021.6 hPa | 0 mm | - | 0 W/m² | - |
| 1777450594 | 8.89° C | 75% | 1021.6 hPa | 0 mm | - | 0 W/m² | - |
| 1777450290 | 10° C | 74% | 1021.6 hPa | 0 mm | - | 0 W/m² | - |
| 1777449987 | 9.44° C | 73% | 1021.8 hPa | 0 mm | - | 0 W/m² | - |
| 1777449683 | 9.44° C | 74% | 1021.4 hPa | 0 mm | - | 0 W/m² | - |
| 1777449379 | 9.44° C | 72% | 1021.5 hPa | 0 mm | - | 0 W/m² | - |
| 1777449075 | 9.44° C | 75% | 1021.5 hPa | 0 mm | - | 0 W/m² | - |
| 1777448771 | 9.44° C | 76% | 1021.6 hPa | 0 mm | - | 0 W/m² | - |
| 1777448468 | 9.44° C | 74% | 1021.4 hPa | 0 mm | - | 0 W/m² | - |
| 1777448164 | 9.44° C | 78% | 1021.4 hPa | 0 mm | - | 0 W/m² | - |
| 1777447861 | 9.44° C | 75% | 1021.3 hPa | 0 mm | - | 0 W/m² | - |
| 1777447556 | 8.89° C | 78% | 1021.4 hPa | 0 mm | - | 0 W/m² | - |
| 1777447253 | 10° C | 73% | 1021 hPa | 0 mm | - | 0 W/m² | - |
| 1777446951 | 10° C | 74% | 1021.1 hPa | 0 mm | - | 0 W/m² | - |
| 1777446648 | 10° C | 72% | 1021 hPa | 0 mm | - | 0 W/m² | - |
| 1777446344 | 10° C | 74% | 1021 hPa | 0 mm | - | 0 W/m² | - |
| 1777446041 | 10° C | 73% | 1021 hPa | 0 mm | - | 0 W/m² | - |
| 1777445737 | 8.89° C | 75% | 1021 hPa | 0 mm | - | 0 W/m² | - |
| 1777445433 | 10° C | 79% | 1021.3 hPa | 0 mm | - | 0 W/m² | - |
* Rain latest hour (hover to see other rain measurements)
** Current wind speed in m/s (hover to see current wind gust speed)